This is the latest recevied weather packets stored in our database for station/object KJ4RDP-13. If no packets are shown the sender has not sent any weather packets the latest 10 day(s).
| Time | Temp. | Humidity | Pressure | Rain* | Wind** | Luminosity | Snow |
|---|---|---|---|---|---|---|---|
| 1777927348 | 21.11° C | 41% | 1014.2 hPa | 0 mm | - | 212 W/m² | - |
| 1777927047 | 21.67° C | 42% | 1014.2 hPa | 0 mm | - | 200 W/m² | - |
| 1777926744 | 21.11° C | 40% | 1014.2 hPa | 0 mm | - | 189 W/m² | - |
| 1777926444 | 21.67° C | 39% | 1013.8 hPa | 0 mm | - | 185 W/m² | - |
| 1777926141 | 21.67° C | 42% | 1013.8 hPa | 0 mm | - | 181 W/m² | - |
| 1777925838 | 21.67° C | 41% | 1013.8 hPa | 0 mm | - | 180 W/m² | - |
| 1777925535 | 21.67° C | 42% | 1014.2 hPa | 0 mm | - | 171 W/m² | - |
| 1777925233 | 22.78° C | 37% | 1013.8 hPa | 0 mm | - | 168 W/m² | - |
| 1777924929 | 22.78° C | 37% | 1014.2 hPa | 0 mm | - | 232 W/m² | - |
| 1777924625 | 23.89° C | 36% | 1014.2 hPa | 0 mm | - | 302 W/m² | - |
| 1777924321 | 23.89° C | 36% | 1014.2 hPa | 0 mm | - | 429 W/m² | - |
| 1777924018 | 23.89° C | 36% | 1014.2 hPa | 0 mm | - | 550 W/m² | - |
| 1777923714 | 24.44° C | 34% | 1014.2 hPa | 0 mm | - | 557 W/m² | - |
| 1777923411 | 23.89° C | 34% | 1014.6 hPa | 0 mm | - | 574 W/m² | - |
| 1777923109 | 23.33° C | 33% | 1014.6 hPa | 0 mm | - | 581 W/m² | - |
| 1777922807 | 23.89° C | 35% | 1014.6 hPa | 0 mm | - | 571 W/m² | - |
| 1777922504 | 23.89° C | 36% | 1014.6 hPa | 0 mm | - | 650 W/m² | - |
| 1777922203 | 22.78° C | 34% | 1014.6 hPa | 0 mm | - | 652 W/m² | - |
| 1777921898 | 22.78° C | 37% | 1014.9 hPa | 0 mm | - | 694 W/m² | - |
| 1777921595 | 22.22° C | 39% | 1014.6 hPa | 0 mm | - | 635 W/m² | - |
| 1777921292 | 22.78° C | 40% | 1014.9 hPa | 0 mm | - | 690 W/m² | - |
| 1777920988 | 22.78° C | 40% | 1014.9 hPa | 0 mm | - | 634 W/m² | - |
| 1777920685 | 23.33° C | 40% | 1014.9 hPa | 0 mm | - | 682 W/m² | - |
| 1777920380 | 22.78° C | 39% | 1014.9 hPa | 0 mm | - | 671 W/m² | - |
| 1777920075 | 22.78° C | 39% | 1014.9 hPa | 0 mm | - | 690 W/m² | - |
* Rain latest hour (hover to see other rain measurements)
** Current wind speed in m/s (hover to see current wind gust speed)